STARLINK-2520 (48281 NORAD) Tracking and Keplerian Element Data

This shows tracking and keplerian element data for the satellite.

Feedback or suggestion? Click here.




ElementValue
Catalog48281
NameSTARLINK-2520
Epoch Orbit1521
Epoch Day211.25001157
Epoch Year2021
RAAN74.5216
Inclination53.0505
Eccentricity0.0001385
Argument of Perigee69.174
Mean Anonmoly88.4756
Mean Motion15.27076795
Decay Rate-0.01072834
L11 48281U 21036F 21211.25001157 -.01072834 00000-0 -43515-1 0 9999
L22 48281 53.0505 74.5216 0001385 69.1740 88.4756 15.27076795 15218

Live tracking and technical data element details for STARLINK-2520 (NORAD 48281). STARLINK-2520 can be tracked NOW for your location showing map with azimuth and elevation plus other details from your city location.

Track the satellite on the map from your city or location and see movement details for azimuth, elevation, latitude, longitude, range, height, and movement on the map or in text.







IsCatalogInMostPopularTable: catalog: 48281, numindb: 31
Update: records affected: 1



GetName: 48281 STARLINK-2520

Hit Count: updated at: Sat, 31 Jul 2021 14:51:50 GMT